Content
SEND FEEDBACK

Daily
Averages
Monthly
Summary
United States of America

WRIGHT, MINNESOTA


Home > North America > United States > Minnesota
Elevation: 1281 feet     Latitude: 46 43N     Longitude: 093 04W

WEATHER
 
SELECT A DAY
Number of Records: 256,039;   Date Range: 2/19/04 - 8/30/14
 
SHARE

PRINT THIS DATA

[ ← Previous Day ]
WEATHER ALMANAC - JANUARY 31, 2013
[ Next Day → ]
[ °C ]   °F
Weather ElementAverageHighLow
Temperature-0.1 °F5 °F (12:32 am)-13 °F (11:13 pm)
Dewpoint-7.5 °F1.4 °F (12:32 am)-20.2 °F (11:32 pm)
Humidity71.2 %85 % (12:32 am)61 % (12:12 pm)
Barometer29.93 in30.16 in (10:32 pm)29.69 in (12:32 am)
Wind Speed11.6 mph17.3 mph (9:32 am)
Wind Gust25.3 mph (10:12 am)
Weather ElementAverage
Visibility8.3 mi
Wind DirectionWNW (303.2 °)

Weather ElementTotal
Precipitation---
Heating Degree Days69 (Base 65)
Averaged from 68 records on January 31, 2013
WEATHER CONDITIONS BREAKOUT
WIND DIRECTION BREAKOUT
WEATHER BY HOUR - JANUARY 31, 2013
[ °C ]   °F
Local TimeTemperatureDewpointHumidityBarometerVisibilityWind DirectionWind SpeedGust SpeedPrecipitationEventsConditions
12:32 AM5.0 °F1.4 °F85 %29.69 in10.0 miNW (310°)10.4 mph16.1 mphOvercast
12:52 AM5.0 °F1.4 °F85 %29.70 in10.0 miWNW (300°)9.2 mphOvercast
1:11 AM5.0 °F1.4 °F85 %29.70 in10.0 miWNW (300°)10.4 mph17.3 mphOvercast
1:32 AM5.0 °F-0.4 °F78 %29.71 in10.0 miWNW (300°)11.5 mph16.1 mphOvercast
1:52 AM5.0 °F-0.4 °F78 %29.71 in10.0 miWNW (300°)8.1 mphOvercast
2:11 AM5.0 °F-0.4 °F78 %29.72 in7.0 miWNW (300°)9.2 mph17.3 mphOvercast
2:32 AM5.0 °F-0.4 °F78 %29.73 in10.0 miWNW (300°)11.5 mph16.1 mphOvercast
2:52 AM3.2 °F-0.4 °F85 %29.73 in5.0 miNW (310°)9.2 mphOvercast
3:11 AM3.2 °F-0.4 °F85 %29.74 in7.0 miWNW (300°)10.4 mphOvercast
3:33 AM3.2 °F-0.4 °F85 %29.74 in7.0 miWNW (300°)11.5 mphOvercast
3:52 AM3.2 °F-2.2 °F78 %29.74 in10.0 miWNW (290°)9.2 mph18.4 mphOvercast
4:11 AM3.2 °F-2.2 °F78 %29.75 in7.0 miWNW (300°)8.1 mphScattered Clouds
4:32 AM3.2 °F-4.0 °F72 %29.75 in10.0 miWNW (300°)11.5 mph16.1 mphScattered Clouds
4:52 AM3.2 °F-4.0 °F72 %29.76 in4.0 miWNW (300°)10.4 mph17.3 mphOvercast
5:12 AM1.4 °F-4.0 °F78 %29.76 in2.0 miNW (310°)12.7 mph19.6 mphOvercast
5:33 AM1.4 °F-4.0 °F78 %29.77 in3.0 miNW (310°)9.2 mph20.7 mphOvercast
5:52 AM1.4 °F-4.0 °F78 %29.78 in5.0 miNW (310°)12.7 mphOvercast
6:13 AM1.4 °F-5.8 °F72 %29.79 in10.0 miNW (310°)15.0 mph18.4 mphOvercast
6:32 AM1.4 °F-5.8 °F72 %29.80 in10.0 miNW (310°)9.2 mph17.3 mphOvercast
6:52 AM-0.4 °F-5.8 °F78 %29.82 in10.0 miWNW (300°)10.4 mph19.6 mphOvercast
7:06 AM-0.4 °F-5.8 °F78 %29.82 in4.0 miWNW (300°)13.8 mph18.4 mphOvercast
7:30 AM-0.4 °F-5.8 °F78 %29.83 in4.0 miNW (310°)10.4 mph16.1 mphOvercast
7:52 AM-0.4 °F-5.8 °F78 %29.84 in7.0 miWNW (300°)11.5 mph18.4 mphMostly Cloudy
8:12 AM-0.4 °F-5.8 °F78 %29.86 in4.0 miNW (310°)10.4 mphMostly Cloudy
8:30 AM-0.4 °F-7.6 °F72 %29.87 in4.0 miNW (310°)15.0 mph19.6 mphOvercast
8:52 AM-0.4 °F-7.6 °F72 %29.87 in7.0 miWNW (300°)12.7 mph19.6 mphMostly Cloudy
9:17 AM-0.4 °F-7.6 °F72 %29.89 in7.0 miWNW (300°)16.1 mph21.9 mphClear
9:32 AM-0.4 °F-7.6 °F72 %29.89 in7.0 miNW (320°)17.3 mph21.9 mphClear
9:52 AM-0.4 °F-7.6 °F72 %29.90 in5.0 miNW (310°)11.5 mphClear
10:12 AM1.4 °F-7.6 °F66 %29.92 in4.0 miNW (320°)16.1 mph25.3 mphScattered Clouds
10:33 AM1.4 °F-7.6 °F66 %29.92 in10.0 miNW (310°)15.0 mph20.7 mphScattered Clouds
11:12 AM1.4 °F-7.6 °F66 %29.94 in10.0 miWNW (300°)16.1 mphScattered Clouds
11:32 AM1.4 °F-7.6 °F66 %29.95 in10.0 miNW (310°)16.1 mph21.9 mphScattered Clouds
11:52 AM1.4 °F-7.6 °F66 %29.95 in10.0 miNW (320°)12.7 mph19.6 mphScattered Clouds
12:12 PM3.2 °F-7.6 °F61 %29.96 in7.0 miNW (320°)12.7 mph21.9 mphMostly Cloudy
12:32 PM3.2 °F-7.6 °F61 %29.96 in10.0 miNW (310°)11.5 mph21.9 mphMostly Cloudy
12:52 PM3.2 °F-7.6 °F61 %29.96 in7.0 miNW (310°)10.4 mph21.9 mphMostly Cloudy
1:12 PM3.2 °F-5.8 °F66 %29.97 in5.0 miWNW (300°)13.8 mph20.7 mphMostly Cloudy
1:31 PM3.2 °F-5.8 °F66 %29.97 in10.0 miWNW (300°)15.0 mph21.9 mphScattered Clouds
1:52 PM3.2 °F-5.8 °F66 %29.98 in10.0 miWNW (300°)15.0 mph18.4 mphScattered Clouds
2:13 PM3.2 °F-5.8 °F66 %29.98 in7.0 miWNW (300°)12.7 mph19.6 mphScattered Clouds
2:33 PM5.0 °F-5.8 °F61 %29.98 in7.0 miNW (310°)13.8 mph18.4 mphScattered Clouds
2:53 PM3.2 °F-5.8 °F66 %29.99 in4.0 miWNW (300°)15.0 mph18.4 mphOvercast
3:13 PM3.2 °F-5.8 °F66 %30.00 in10.0 miWNW (300°)15.0 mph19.6 mphScattered Clouds
3:33 PM3.2 °F-5.8 °F66 %30.02 in10.0 miWNW (300°)13.8 mph19.6 mphClear
3:53 PM3.2 °F-5.8 °F66 %30.02 in10.0 miNW (310°)11.5 mph17.3 mphClear
4:13 PM3.2 °F-5.8 °F66 %30.03 in7.0 miWNW (300°)15.0 mph19.6 mphScattered Clouds
4:32 PM3.2 °F-7.6 °F61 %30.04 in10.0 miWNW (290°)8.1 mph20.7 mphScattered Clouds
4:53 PM1.4 °F-7.6 °F66 %30.05 in10.0 miWNW (300°)13.8 mph18.4 mphScattered Clouds
5:12 PM1.4 °F-7.6 °F66 %30.05 in10.0 miWNW (290°)8.1 mphScattered Clouds
5:32 PM1.4 °F-7.6 °F66 %30.06 in10.0 miWNW (300°)10.4 mph16.1 mphScattered Clouds
5:50 PM-0.4 °F-9.4 °F66 %30.07 in10.0 miWNW (300°)13.8 mph20.7 mphMostly Cloudy
6:12 PM-0.4 °F-9.4 °F66 %30.08 in10.0 miWNW (300°)12.7 mph19.6 mphScattered Clouds
6:33 PM-2.2 °F-9.4 °F71 %30.09 in10.0 miWNW (300°)11.5 mph20.7 mphClear
6:50 PM-4.0 °F-11.2 °F71 %30.10 in10.0 miWNW (300°)11.5 mph21.9 mphClear
7:12 PM-4.0 °F-13.0 °F65 %30.10 in10.0 miWNW (300°)9.2 mph16.1 mphClear
7:32 PM-4.0 °F-13.0 °F65 %30.11 in10.0 miWNW (300°)9.2 mph16.1 mphClear
8:12 PM-5.8 °F-14.8 °F65 %30.12 in10.0 miWNW (290°)12.7 mph16.1 mphClear
8:32 PM-7.6 °F-14.8 °F71 %30.13 in10.0 miWNW (300°)12.7 mph20.7 mphClear
8:50 PM-7.6 °F-16.6 °F65 %30.14 in10.0 miWNW (300°)5.8 mph9.2 mphClear
9:12 PM-9.4 °F-16.6 °F71 %30.14 in10.0 miWNW (300°)8.1 mphClear
9:32 PM-9.4 °F-18.4 °F65 %30.14 in10.0 miWNW (300°)11.5 mphClear
10:12 PM-9.4 °F-18.4 °F65 %30.15 in10.0 miNW (310°)9.2 mphClear
10:32 PM-11.2 °F-18.4 °F70 %30.16 in10.0 miWNW (300°)9.2 mphClear
10:53 PM-11.2 °F-18.4 °F70 %30.15 in10.0 miWNW (300°)8.1 mphClear
11:13 PM-13.0 °F-18.4 °F77 %30.16 in10.0 miWNW (300°)9.2 mphClear
11:32 PM-13.0 °F-20.2 °F70 %30.16 in10.0 miWNW (300°)9.2 mphClear
11:53 PM-13.0 °F-20.2 °F70 %30.16 in10.0 miWNW (300°)6.9 mphClear
Hourly data recorded from KHZX, located miles away from Wright, Minnesota







STORIES FROM OUR PARTNERS